User: anonymous   Login
Location: La Vergne
(36.0160°N, 86.5820°W)
Time: 14:22:12
(UTC-05:00)
Language:

Cosmos 1703 Rocket - Orbit

View from above orbital plane
View from above orbital plane
View from above satellite
View from above satellite

Ground track
Ground track

The orbit data is extracted from the following two-line orbital elements,

1 16263U 85108B   15238.50992956  .00000163  00000-0  17134-4 0  9994
2 16263 082.5050 014.0363 0020337 008.3428 036.0684 14.82802610606479
Epoch (UTC): 26 August 2015 12:14:17
Eccentricity: 0.0020337
inclination: 82.5050°
perigee height: 606 km
apogee height: 635 km
right ascension of ascending node: 14.0363°
argument of perigee: 8.3428°
revolutions per day: 14.82802610
mean anomaly at epoch: 36.0684°
orbit number at epoch: 60647

The dashed part of the orbit path shows where the satellite is in the earth's shadow,  

DLR